[[{"header":{"parameterUnit":"m.s-1","parameterCategory":1,"la1":30.2991,"la2":30.254,"lo1":-89.0895,"lo2":-89.0444,"dy":0.0017,"dx":0.0017,"nx":28,"ny":28,"refTime":"2023-09-19T03:00:00:Z","depth":0,"parameterNumber":2,"parameterNumberName":"U-component_of_WINDS"},"data":[0,0,0,0,0,0,0,0,0,0,0,0,0,0,0,0,0,0,0,0,0,0,0,0,0,0,0,0,0,0,0,0,0,0,0,0,0,0,0,0,0,0,0,0,0,0,0,0,0,0,0,0,0,0,0,0,0,0,-1.5477,-1.548,0,-1.5785,-1.5789,-1.5792,-1.5959,-1.5959,-1.5959,-1.596,-1.6277,-1.6284,-1.6292,0,0,0,0,0,0,0,0,0,0,0,0,0,-1.5036,-1.5043,-1.5477,-1.5481,-1.5484,-1.5785,-1.5789,-1.5793,-1.5959,-1.5959,-1.5959,-1.596,-1.6274,-1.6283,-1.6293,0,0,0,0,0,0,0,0,0,0,0,0,0,-1.5274,-1.5046,-1.5476,-1.5603,-1.5618,-1.5784,-1.5789,-1.5794,-1.5958,-1.5959,-1.596,-1.596,-1.6271,-1.6283,-1.6295,-1.6358,0,0,-1.6332,-1.6337,0,0,0,0,0,0,0,0,-1.526,-1.529,-1.5581,-1.5595,-1.5611,-1.5834,-1.575,-1.5983,-1.5958,-1.5829,-1.596,-1.596,-1.6129,-1.6153,-1.6209,-1.6373,-1.6387,-1.6333,-1.634,-1.6345,-1.6349,0,0,0,0,0,0,0,-1.5244,-1.5278,-1.5599,-1.5585,-1.5603,-1.5646,-1.5681,-1.5795,-1.5972,-1.584,-1.5853,-1.5887,-1.6137,-1.6197,-1.6218,-1.6391,-1.6332,-1.6343,-1.6351,-1.6355,-1.6628,-1.6628,0,0,0,0,0,0,-1.5206,-1.5263,-1.5589,-1.5608,-1.5434,-1.5654,-1.5692,-1.5762,-1.5971,-1.6004,-1.5887,-1.5894,-1.6176,-1.6204,-1.623,-1.6321,-1.6345,-1.6357,-1.6363,-1.6628,-1.6628,-1.6628,0,0,0,0,0,0,-1.5196,-1.5234,-1.5577,-1.5439,-1.5486,-1.5661,-1.5738,-1.5768,-1.5828,-1.6006,-1.6039,-1.5915,-1.6178,-1.6213,-1.6326,-1.6334,-1.6362,-1.6373,-1.6628,-1.6628,-1.6628,-1.6502,0,0,0,0,0,0,-1.5183,-1.5229,-1.5254,-1.5438,-1.5493,-1.5666,-1.5738,-1.5773,-1.5848,-1.5861,-1.6041,-1.6072,-1.6181,-1.6307,-1.6338,-1.6352,-1.6382,-1.6628,-1.6628,-1.6628,-1.6506,-1.6497,-1.649,0,0,0,0,0,-1.5166,-1.5205,-1.5254,-1.5292,-1.5527,-1.5666,-1.5697,-1.5821,-1.5848,-1.5875,-1.5991,-1.6066,-1.6328,-1.6317,-1.6354,-1.6371,-1.6628,-1.6628,-1.6628,-1.651,-1.6499,-1.649,0,0,0,0,0,0,-1.5016,-1.5231,-1.5288,-1.5387,-1.5507,-1.5693,-1.5731,-1.5806,-1.592,-1.5927,-1.6077,-1.6117,-1.6217,-1.6306,-1.6289,-1.6446,-1.6487,-1.6494,-1.6384,-1.6376,-1.6368,-1.6344,-1.6393,0,0,0,0,0,-1.4995,-1.5088,-1.5272,-1.5342,-1.5399,-1.5555,-1.562,-1.5706,-1.5836,-1.5887,-1.6011,-1.6135,-1.6247,-1.6316,-1.6428,-1.652,-1.6564,-1.655,-1.6542,-1.6535,-1.6539,-1.6599,-1.6596,-1.6628,-1.6628,-1.6628,0,0,-1.4951,-1.508,-1.513,-1.5315,-1.5418,-1.5514,-1.5596,-1.5693,-1.5766,-1.5902,-1.6017,-1.6112,-1.6262,-1.6365,-1.6417,-1.6442,-1.6541,-1.6535,-1.6528,-1.6537,-1.6598,-1.6595,-1.6592,-1.6628,-1.6628,-1.6628,0,0,-1.492,-1.5026,-1.5098,-1.52,-1.5355,-1.5459,-1.5476,-1.5653,-1.5722,-1.584,-1.5945,-1.6035,-1.6222,-1.6325,-1.6402,-1.6415,-1.649,-1.6447,-1.6405,-1.6461,-1.6459,-1.6458,-1.6465,-1.6465,-1.6451,-1.6451,-1.6451,0,-1.4846,-1.4993,-1.5125,-1.5217,-1.5297,-1.5426,-1.5502,-1.5594,-1.5778,-1.5831,-1.5856,-1.6097,-1.6206,-1.6337,-1.6341,-1.6398,-1.6424,-1.6427,-1.6448,-1.6448,-1.6449,-1.6458,-1.6459,-1.6445,-1.6445,-1.6446,-1.6447,0,-1.4896,-1.4996,-1.5036,-1.5211,-1.5295,-1.5378,-1.5525,-1.5595,-1.5675,-1.5776,-1.5897,-1.6033,-1.6176,-1.6214,-1.6292,-1.6358,-1.637,-1.6419,-1.6463,-1.6438,-1.6448,-1.6452,-1.6436,-1.6438,-1.644,-1.6441,0,0,-1.4776,-1.5026,-1.5038,-1.5121,-1.5304,-1.5385,-1.5475,-1.5616,-1.5674,-1.5798,-1.5879,-1.6036,-1.6086,-1.6172,-1.6264,-1.6313,-1.6318,-1.6358,-1.6364,-1.6347,-1.6403,-1.6364,-1.6366,-1.6369,-1.637,-1.6371,-1.6391,0,-1.4772,-1.4939,-1.5063,-1.5184,-1.5281,-1.5407,-1.5486,-1.5608,-1.5707,-1.5804,-1.5914,-1.6024,-1.6079,-1.6133,-1.6188,-1.6305,-1.6331,-1.6306,-1.6448,-1.6451,-1.6407,-1.6371,-1.633,-1.6342,-1.6396,-1.6397,-1.6397,0,-1.4789,-1.491,-1.5039,-1.5216,-1.5261,-1.533,-1.5471,-1.5562,-1.5705,-1.5773,-1.5872,-1.5967,-1.6071,-1.6106,-1.6253,-1.6233,-1.6299,-1.6366,-1.637,-1.6388,-1.6422,-1.6389,-1.6349,-1.635,-1.6405,-1.6404,-1.6404,0,-1.4691,-1.4885,-1.499,-1.5056,-1.5264,-1.531,-1.5399,-1.5542,-1.562,-1.5744,-1.5797,-1.593,-1.6004,-1.6107,-1.6237,-1.6249,-1.6371,-1.6416,-1.6433,-1.643,-1.6452,-1.6449,-1.6422,-1.6493,-1.6493,-1.6493,-1.6493,0,-1.4674,-1.4749,-1.4949,-1.5012,-1.5102,-1.5245,-1.533,-1.543,-1.5557,-1.5644,-1.5762,-1.5842,-1.6008,-1.6109,-1.6212,-1.632,-1.6352,-1.6412,-1.6438,-1.6402,-1.6394,-1.6447,-1.645,-1.6494,-1.6493,-1.6493,-1.6493,0,-1.4578,-1.4715,-1.4837,-1.5025,-1.5074,-1.5131,-1.5294,-1.5362,-1.5468,-1.5578,-1.5612,-1.5779,-1.5905,-1.6045,-1.6216,-1.6286,-1.6388,-1.6425,-1.6339,-1.6354,-1.6364,-1.6362,-1.6371,-1.6381,-1.6442,-1.6441,-1.6441,0,-1.4558,-1.4619,-1.4814,-1.4882,-1.4967,-1.5073,-1.5155,-1.53,-1.5379,-1.5549,-1.5597,-1.5732,-1.5847,-1.6042,-1.618,-1.6313,-1.6356,-1.635,-1.6376,-1.6339,-1.6358,-1.6353,-1.6361,-1.6342,-1.634,-1.6339,-1.6338,0,-1.4509,-1.4575,-1.4686,-1.4823,-1.4916,-1.503,-1.515,-1.5198,-1.5368,-1.5452,-1.5582,-1.5671,-1.5849,-1.5982,-1.6133,-1.6227,-1.6312,-1.6329,-1.6341,-1.6304,-1.6252,-1.6283,-1.6319,-1.6328,-1.6329,-1.633,-1.633,-1.6331,-1.4453,-1.4514,-1.4662,-1.4783,-1.4889,-1.4999,-1.5073,-1.519,-1.5301,-1.5456,-1.5536,-1.5665,-1.5811,-1.6023,-1.6115,-1.622,-1.6247,-1.6263,-1.6267,-1.6269,-1.626,-1.6235,-1.6248,-1.6249,-1.6249,-1.625,-1.625,0,-1.4411,-1.4513,-1.4624,-1.4788,-1.4884,-1.4956,-1.5093,-1.517,-1.5282,-1.5411,-1.5523,-1.5674,-1.5805,-1.5955,-1.6096,-1.6152,-1.6194,-1.6184,-1.6182,-1.6203,-1.6227,-1.6204,-1.6147,-1.6147,-1.6147,-1.6147,-1.6147,-1.6147,-1.44,-1.4509,-1.4593,-1.4757,-1.486,-1.4988,-1.506,-1.5164,-1.5267,-1.5431,-1.5541,-1.5638,-1.5776,-1.5929,-1.6054,-1.6095,-1.6142,-1.612,-1.6172,-1.6192,-1.62,-1.6208,-1.6188,-1.6129,-1.6129,-1.614,-1.614,-1.614]},{"header":{"parameterUnit":"m.s-1","parameterCategory":1,"la1":30.2991,"la2":30.254,"lo1":-89.0895,"lo2":-89.0444,"dy":0.0017,"dx":0.0017,"nx":28,"ny":28,"refTime":"2023-09-19T03:00:00:Z","depth":0,"parameterNumber":3,"parameterNumberName":"V-component_of_WINDS"},"data":[0,0,0,0,0,0,0,0,0,0,0,0,0,0,0,0,0,0,0,0,0,0,0,0,0,0,0,0,0,0,0,0,0,0,0,0,0,0,0,0,0,0,0,0,0,0,0,0,0,0,0,0,0,0,0,0,0,0,0.126,0.1258,0,0.0996,0.0993,0.099,0.0815,0.0814,0.0813,0.0812,0.0542,0.0536,0.053,0,0,0,0,0,0,0,0,0,0,0,0,0,0.1614,0.1608,0.1261,0.1257,0.1254,0.0997,0.0993,0.099,0.0815,0.0814,0.0812,0.0811,0.0544,0.0537,0.053,0,0,0,0,0,0,0,0,0,0,0,0,0,0.1416,0.1606,0.1261,0.1136,0.1122,0.0998,0.0993,0.0989,0.0816,0.0814,0.0812,0.081,0.0547,0.0538,0.0529,0.0508,0,0,0.0501,0.0497,0,0,0,0,0,0,0,0,0.1428,0.1403,0.1158,0.1144,0.1129,0.0937,0.1019,0.0828,0.0816,0.0932,0.0812,0.081,0.0675,0.0655,0.061,0.0496,0.0484,0.05,0.0495,0.0491,0.0488,0,0,0,0,0,0,0,0.1442,0.1414,0.1156,0.1154,0.1137,0.1093,0.1063,0.0982,0.0817,0.0922,0.0908,0.088,0.0667,0.0619,0.0602,0.048,0.05,0.0492,0.0487,0.0483,0.0334,0.0336,0,0,0,0,0,0,0.1475,0.1426,0.1164,0.1148,0.1277,0.1088,0.1054,0.1,0.0817,0.0788,0.0881,0.0872,0.0635,0.0613,0.0592,0.0554,0.0491,0.0482,0.0477,0.0333,0.0335,0.0336,0,0,0,0,0,0,0.1483,0.1453,0.1175,0.1283,0.1245,0.1084,0.1024,0.0996,0.0948,0.0787,0.0756,0.0863,0.0633,0.0605,0.053,0.0542,0.0478,0.047,0.0331,0.0333,0.0335,0.048,0,0,0,0,0,0,0.1494,0.1457,0.1448,0.1285,0.124,0.1118,0.1025,0.0992,0.0932,0.0918,0.0761,0.0733,0.0629,0.0544,0.0521,0.0529,0.0463,0.0329,0.0332,0.0335,0.0474,0.0487,0.0499,0,0,0,0,0,0.1507,0.15,0.1448,0.1418,0.1224,0.1119,0.1093,0.0973,0.0934,0.0923,0.0819,0.0738,0.0546,0.0538,0.051,0.0516,0.0328,0.0331,0.0335,0.0468,0.0484,0.0498,0,0,0,0,0,0,0.1669,0.1476,0.1417,0.1356,0.1255,0.109,0.1072,0.0995,0.0903,0.0894,0.075,0.0716,0.0655,0.0578,0.0573,0.0485,0.0427,0.0425,0.0538,0.0552,0.0565,0.0584,0.0455,0,0,0,0,0,0.1698,0.1628,0.1463,0.1425,0.1378,0.1234,0.1184,0.11,0.099,0.0946,0.0837,0.0734,0.0649,0.0597,0.051,0.0462,0.0425,0.0452,0.0465,0.0476,0.0475,0.0443,0.0452,0.0347,0.0347,0.0347,0,0,0.1756,0.1642,0.1607,0.1455,0.1367,0.1298,0.1199,0.1131,0.1077,0.0936,0.0858,0.0775,0.0649,0.0588,0.0555,0.0521,0.0496,0.048,0.049,0.0483,0.0447,0.0457,0.0466,0.035,0.0349,0.0349,0,0,0.1826,0.1734,0.1691,0.1605,0.1472,0.1377,0.1367,0.1213,0.1151,0.1071,0.0963,0.0898,0.0757,0.0671,0.0609,0.0648,0.0569,0.0624,0.0689,0.0659,0.0667,0.0674,0.0686,0.0692,0.0624,0.0624,0.0625,0,0.1915,0.1806,0.1679,0.1616,0.1552,0.1421,0.1376,0.1299,0.1146,0.1105,0.1069,0.0888,0.0794,0.071,0.0719,0.0674,0.0658,0.064,0.0676,0.0682,0.0686,0.0696,0.0701,0.0632,0.0631,0.063,0.063,0,0.1921,0.1848,0.1829,0.1684,0.1618,0.1565,0.143,0.1378,0.1301,0.121,0.1129,0.1012,0.0899,0.0874,0.0798,0.0778,0.0761,0.0704,0.0641,0.0705,0.0712,0.0715,0.0642,0.064,0.0638,0.0636,0,0,0.2085,0.187,0.1865,0.1797,0.1641,0.1582,0.1523,0.1412,0.137,0.1269,0.1215,0.1099,0.1043,0.0974,0.0887,0.0861,0.0897,0.0805,0.08,0.0825,0.0867,0.0911,0.0917,0.0845,0.0845,0.0845,0.0877,0,0.213,0.2016,0.19,0.1828,0.1757,0.1632,0.158,0.1479,0.1392,0.132,0.1224,0.1143,0.1077,0.1034,0.1003,0.09,0.0903,0.0896,0.0793,0.0791,0.0826,0.0921,0.0966,0.1002,0.0879,0.088,0.088,0,0.2168,0.2072,0.1992,0.1842,0.1808,0.1764,0.1652,0.1585,0.1468,0.1407,0.1329,0.1237,0.1168,0.1116,0.1019,0.1017,0.0968,0.0911,0.091,0.0894,0.0838,0.0906,0.101,0.1016,0.0883,0.0883,0.0883,0,0.2293,0.2144,0.2076,0.2022,0.1847,0.1818,0.1744,0.1625,0.1565,0.1468,0.1428,0.1325,0.1269,0.1191,0.1074,0.1047,0.0989,0.0927,0.0935,0.0938,0.0927,0.0929,0.1024,0.09,0.09,0.09,0.0899,0,0.2354,0.231,0.213,0.2089,0.2035,0.1903,0.1854,0.1768,0.1663,0.1603,0.1489,0.1435,0.1284,0.1212,0.112,0.1053,0.1029,0.0977,0.0952,0.0986,0.0992,0.095,0.0944,0.0901,0.09,0.09,0.09,0,0.2484,0.2362,0.228,0.212,0.2079,0.2047,0.191,0.1864,0.1772,0.1696,0.1671,0.1525,0.1434,0.131,0.1181,0.1119,0.1064,0.1027,0.1104,0.1089,0.1103,0.1103,0.1173,0.1175,0.1053,0.1054,0.1055,0,0.2531,0.2494,0.233,0.2281,0.221,0.2133,0.2071,0.194,0.188,0.1744,0.1716,0.1616,0.1529,0.139,0.1272,0.1173,0.1131,0.1163,0.1116,0.115,0.113,0.1133,0.1128,0.1174,0.1176,0.1177,0.1179,0,0.2626,0.2567,0.2482,0.2377,0.2307,0.2217,0.2123,0.2089,0.1938,0.1877,0.1782,0.1715,0.1583,0.1485,0.137,0.1293,0.1211,0.1195,0.1191,0.1224,0.1269,0.1243,0.1133,0.1193,0.1192,0.1191,0.119,0.1189,0.2713,0.2674,0.2552,0.2462,0.2377,0.2291,0.224,0.2141,0.206,0.1941,0.1869,0.1777,0.1661,0.1498,0.1425,0.1352,0.1318,0.1314,0.1312,0.1313,0.1323,0.1283,0.133,0.133,0.1329,0.1329,0.1328,0,0.28,0.2716,0.2634,0.2505,0.2434,0.2363,0.2254,0.22,0.212,0.2019,0.1935,0.1826,0.1731,0.1607,0.1502,0.1468,0.1427,0.1445,0.1445,0.1428,0.1359,0.1372,0.1479,0.1479,0.1479,0.1479,0.1479,0.1479,0.2837,0.2766,0.2694,0.258,0.2495,0.2404,0.2348,0.2268,0.2186,0.2069,0.1989,0.1909,0.1797,0.1684,0.1594,0.156,0.1526,0.1555,0.151,0.1447,0.1433,0.142,0.1431,0.1549,0.1549,0.1584,0.1584,0.1584]}]]